Lid_Strength_Index
12 11 12 11 12 12 12 12 13 12 12 11 9 8 8 7 8 7 7 6 6 6 6 6 5 4 4 4 4 4 3 3 4 3 4 3 2 2 2 2 2 1 1 1
14 11 11 13 11 11 11 11 11 11 12 9 8 7 8 7 7 7 7 6 6 6 6 5 4 4 4 4 4 4 3 3 3 3 3 3 3 3 3 3 3 2 1 1
17 12 12 15 12 12 11 10 10 12 11 10 10 8 8 7 7 6 6 6 6 6 6 5 4 3 4 4 4 4 4 3 3 3 3 4 3 3 4 4 4 4 2 2
18 14 18 13 10 10 11 10 9 10 10 9 8 6 6 6 6 6 6 6 5 5 5 5 4 3 4 5 4 4 4 3 3 3 3 3 4 4 4 5 5 5 5 3
18 17 14 12 10 11 12 11 9 9 9 8 8 7 8 5 5 6 5 5 5 4 5 6 5 3 4 5 4 4 3 3 3 3 3 3 3 4 4 4 6 6 5 4
16 19 19 13 9 8 9 12 9 9 9 9 8 10 9 6 5 5 5 5 5 4 5 6 5 4 4 5 4 4 3 3 3 3 3 4 4 4 4 5 5 6 6 5
16 17 14 10 9 8 13 13 9 8 9 10 8 7 7 5 5 5 5 6 5 5 5 5 5 4 4 5 4 3 3 2 3 3 4 4 4 3 4 4 5 6 6 6
15 17 18 8 9 13 11 9 8 8 9 9 8 8 7 5 5 5 6 6 5 5 5 5 5 4 4 5 4 3 3 2 3 3 3 3 3 3 3 3 5 6 6 6
14 14 10 9 11 10 9 10 7 7 7 8 8 8 7 5 5 5 5 5 5 5 6 5 5 4 5 4 5 4 4 3 4 3 4 3 4 4 4 4 4 5 5 6
13 10 10 10 9 10 9 10 9 6 6 7 8 8 7 5 5 5 5 5 5 5 6 6 5 4 4 5 4 4 4 4 4 3 4 3 3 3 3 4 4 4 4 6
12 11 10 10 10 10 9 9 9 8 6 6 8 8 6 5 4 5 5 5 5 6 6 6 5 4 4 5 4 4 4 5 4 3 3 2 2 2 2 2 3 3 3 3
14 10 11 11 10 9 9 10 9 9 6 5 6 8 7 5 4 4 5 4 5 5 5 5 5 5 4 4 4 4 5 5 4 3 3 2 2 4 10 8 8 9 8 5
10 9 9 9 8 8 10 9 9 7 5 6 5 5 5 6 5 4 4 4 5 5 5 5 5 5 4 3 4 4 4 4 4 4 3 3 3 3 4 6 9 10 11 9
8 8 10 9 10 9 9 9 8 6 6 5 5 4 5 5 5 4 4 4 4 4 5 5 5 5 4 3 4 3 4 7 4 3 3 2 2 3 2 3 4 5 10 10
7 7 9 9 8 8 9 8 9 7 7 6 5 5 5 5 5 5 4 3 4 4 5 5 5 5 4 3 4 4 4 5 5 5 3 3 2 2 2 3 3 4 8 11
8 9 8 9 9 8 9 9 8 7 7 6 5 5 4 4 5 5 4 4 4 5 4 4 5 4 4 3 4 4 4 7 7 5 5 4 3 3 3 3 3 3 5 4
9 8 8 9 9 9 8 9 8 7 7 7 6 4 4 4 4 4 5 4 3 4 4 4 4 4 4 4 4 4 5 7 9 6 5 5 5 4 4 4 4 4 4 6
8 8 9 9 9 9 8 8 8 8 7 6 6 5 5 5 5 5 4 4 4 4 3 3 4 4 3 4 4 4 5 6 6 6 6 5 5 5 5 5 5 5 5 7
7 8 9 8 8 8 7 8 8 8 7 6 6 6 5 4 4 4 4 4 4 5 4 3 8 5 4 5 5 4 4 5 5 5 6 9 8 5 5 5 5 5 6 7
6 6 7 7 7 7 7 7 7 8 7 5 5 6 6 6 4 4 4 4 4 4 3 4 4 3 3 6 9 4 4 5 5 5 6 6 6 6 6 9 6 6 6 6
6 5 5 6 8 6 7 7 7 7 6 5 5 6 6 6 4 4 4 5 3 4 6 7 4 5 5 7 6 5 4 5 5 5 6 6 6 6 6 6 7 6 7 6
6 6 5 5 6 8 7 7 7 5 4 4 5 4 5 5 4 4 5 5 3 12 7 6 7 11 9 11 5 5 5 4 5 5 6 6 6 7 6 6 6 7 7 7
6 6 5 5 5 5 5 7 6 6 6 4 5 5 5 4 4 5 5 4 5 8 7 7 14 16 15 5 4 5 5 4 5 5 5 5 5 6 6 6 6 6 6 7
5 5 5 4 4 4 5 4 4 5 5 5 4 4 4 4 4 4 5 9 12 12 8 11 13 16 11 5 6 5 6 5 6 6 5 10 6 6 6 6 6 6 7 9
4 4 4 5 5 5 4 4 4 4 4 4 4 3 3 2 4 4 4 4 12 9 6 13 13 13 5 5 5 5 6 6 6 6 7 6 6 6 6 6 7 7 8 9
5 5 4 4 4 4 4 4 5 5 6 6 5 4 3 2 3 3 4 8 6 8 6 7 6 5 5 5 5 5 5 6 6 7 7 8 8 9 9 9 9 9 10 10
5 7 4 4 3 3 4 5 5 5 6 6 6 6 5 4 4 6 8 6 6 7 7 8 8 10 8 8 8 8 7 7 11 7 7 8 9 9 10 10 11 11 12 12